Project,Study,Ord_Occ,Event_Num,Cast_ID,Date_Time_UTC,Date_Time_PST,Lat_Dec,Lon_Dec,Sta_ID,Line,Sta,Depth,Pressure,PrQ,Temp1,Temp1Q,Temp2,Temp2Q,TempAve,Salt1,Salt1Q,Salt1_Corr,Salt2,Salt2Q,Salt2_Corr,SaltAve_Corr,Ox1,Ox1Q,Ox1_CruiseCorr,Ox1_StaCorr,Ox2,Ox2Q,Ox2_CruiseCorr,Ox2_StaCorr,OxAve_StaCorr,Ox1uM,Ox1uM_CruiseCorr,Ox1uM_StaCorr,Ox2uM,Ox2uM_CruiseCorr,Ox2uM_StaCorr,OxAveuM_StaCorr,FluorV,FluorQ,EstChl_CruiseCorr,EstChl_StaCorr,ISUSV,ISUSQ,EstNO3_CruiseCorr,EstNO3_StaCorr,SigThetaTS1,SigThetaTS1Q,SigThetaTS2,SigThetaTS2Q,BAT,XMiss,TransQ,pH,pHQ,SPAR,SPARQ,PAR,PARQ,PoT1,PoT2,DynHt,SVA,OxSat1,OxSat2,BTL_Depth,BTL_Temp,SaltB,OxB,OxBuM,Chl-a,Phaeo,NO3,NO2,NH4,PO4,SIL
CalCOFI,2007SR,049,51,2007_049u,22-Jul-2020 14:24:32,22-Jul-2020 06:24:32,32.57818,-122.81180,083.3 090.0,083.3,090.0,515.000,519.289,,5.7532,,5.7534,,5.7533,34.2129,,34.2131,34.2145,,34.2161,34.2146,0.4214,,0.4226,0.4619,2.1288,,1.1409,0.7798,0.6209,18.326,18.6424,19.7110,92.578,,36.6891,28.2001,0.0327,,,,-99.0,,-99.0,-99.0,26.9670,,26.9682,,0.6354,85.3119,,7.512,,7.9640E+01,,9.8471E-05,,5.7090,5.7092,1.0328,,6.033,30.477,515,5.753,34.2142,0.431,18.82,,,40.40,0.00,0.05,3.13,79.66
CalCOFI,2007SR,049,51,2007_049u,22-Jul-2020 14:24:41,22-Jul-2020 06:24:41,32.57818,-122.81180,083.3 090.0,083.3,090.0,514.000,518.280,,5.7551,,5.7551,,5.7551,34.2125,,34.2127,34.2139,,34.2155,34.2141,0.4222,,0.4235,0.4627,2.1183,,1.1158,0.7543,0.6085,18.359,18.6769,19.7453,92.117,,35.5986,27.6720,0.0319,,,,-99.0,,-99.0,-99.0,26.9664,,26.9675,,0.6357,85.3069,,7.513,,7.9995E+01,,-4.675E-06,,5.7109,5.7109,1.0332,,6.044,30.327,,,,,,,,,,,,
CalCOFI,2007SR,049,51,2007_049u,22-Jul-2020 14:24:43,22-Jul-2020 06:24:43,32.57818,-122.81180,083.3 090.0,083.3,090.0,513.000,517.270,,5.7577,,5.7576,,5.7577,34.2118,,34.2120,34.2133,,34.2149,34.2135,0.4270,,0.4285,0.4677,2.1105,,1.0972,0.7354,0.6016,18.570,18.8971,19.9651,91.780,,34.8014,27.3833,0.0333,,,,-99.0,,-99.0,-99.0,26.9655,,26.9667,,0.6354,85.3126,,7.513,,7.9979E+01,,1.0000E-12,,5.7137,5.7136,1.0332,,6.114,30.217,,,,,,,,,,,,
CalCOFI,2007SR,049,51,2007_049u,22-Jul-2020 14:24:44,22-Jul-2020 06:24:44,32.57818,-122.81180,083.3 090.0,083.3,090.0,512.000,516.260,,5.7601,,5.7601,,5.7601,34.2114,,34.2116,34.2128,,34.2144,34.2130,0.4281,,0.4296,0.4689,2.1134,,1.1041,0.7424,0.6057,18.617,18.9462,20.0140,91.907,,35.1018,27.5579,0.0325,,,,-99.0,,-99.0,-99.0,26.9649,,26.9660,,0.6357,85.3053,,7.514,,7.9979E+01,,1.0000E-12,,5.7161,5.7161,1.0332,,6.130,30.261,,,,,,,,,,,,
CalCOFI,2007SR,049,51,2007_049u,22-Jul-2020 14:24:45,22-Jul-2020 06:24:45,32.57818,-122.81180,083.3 090.0,083.3,090.0,511.000,515.251,,5.7658,,5.7656,,5.7657,34.2104,,34.2106,34.2120,,34.2136,34.2121,0.4291,,0.4307,0.4699,2.1125,,1.1020,0.7402,0.6051,18.662,18.9932,20.0609,91.865,,35.0024,27.5317,0.0329,,,,-99.0,,-99.0,-99.0,26.9634,,26.9646,,0.6353,85.3149,,7.513,,7.9979E+01,,1.0000E-12,,5.7219,5.7217,1.0332,,6.145,30.251,,,,,,,,,,,,
CalCOFI,2007SR,049,51,2007_049u,22-Jul-2020 14:24:46,22-Jul-2020 06:24:46,32.57818,-122.81180,083.3 090.0,083.3,090.0,510.000,514.241,,5.7721,,5.7718,,5.7720,34.2102,,34.2104,34.2118,,34.2134,34.2119,0.4335,,0.4353,0.4745,2.1111,,1.0986,0.7368,0.6057,18.851,19.1905,20.2577,91.808,,34.8676,27.5627,0.0324,,,,-99.0,,-99.0,-99.0,26.9624,,26.9637,,0.6360,85.3001,,7.513,,7.9979E+01,,1.0000E-12,,5.7283,5.7280,1.0332,,6.209,30.236,,,,,,,,,,,,
CalCOFI,2007SR,049,51,2007_049u,22-Jul-2020 14:24:47,22-Jul-2020 06:24:47,32.57818,-122.81178,083.3 090.0,083.3,090.0,509.000,513.232,,5.7771,,5.7772,,5.7772,34.2095,,34.2097,34.2110,,34.2126,34.2112,0.4377,,0.4397,0.4788,2.1004,,1.0731,0.7109,0.5949,19.037,19.3846,20.4515,91.341,,33.7628,27.1072,0.0314,,,,-99.0,,-99.0,-99.0,26.9612,,26.9624,,0.6356,85.3088,,7.514,,7.9979E+01,,1.0000E-12,,5.7333,5.7334,1.0332,,6.270,30.086,,,,,,,,,,,,
CalCOFI,2007SR,049,51,2007_049u,22-Jul-2020 14:24:48,22-Jul-2020 06:24:48,32.57818,-122.81178,083.3 090.0,083.3,090.0,508.000,512.222,,5.7816,,5.7810,,5.7813,34.2080,,34.2082,34.2096,,34.2112,34.2097,0.4341,,0.4359,0.4751,2.1055,,1.0853,0.7232,0.5992,18.878,19.2186,20.2859,91.565,,34.2927,27.2893,0.0328,,,,-99.0,,-99.0,-99.0,26.9595,,26.9608,,0.6354,85.3116,,7.513,,7.9979E+01,,1.0000E-12,,5.7379,5.7373,1.0332,,6.218,30.162,,,,,,,,,,,,
CalCOFI,2007SR,049,51,2007_049u,22-Jul-2020 14:24:49,22-Jul-2020 06:24:49,32.57818,-122.81178,083.3 090.0,083.3,090.0,507.000,511.213,,5.7909,,5.7908,,5.7909,34.2079,,34.2081,34.2096,,34.2112,34.2097,0.4381,,0.4401,0.4792,2.1060,,1.0865,0.7245,0.6019,19.053,19.4013,20.4681,91.586,,34.3424,27.4053,0.0328,,,,-99.0,,-99.0,-99.0,26.9583,,26.9597,,0.6360,85.2997,,7.513,,7.9979E+01,,1.0000E-12,,5.7473,5.7472,1.0332,,6.277,30.176,,,,,,,,,,,,
CalCOFI,2007SR,049,51,2007_049u,22-Jul-2020 14:24:50,22-Jul-2020 06:24:50,32.57818,-122.81178,083.3 090.0,083.3,090.0,506.000,510.203,,5.8049,,5.8048,,5.8049,34.2071,,34.2073,34.2088,,34.2104,34.2089,0.4407,,0.4428,0.4819,2.1011,,1.0748,0.7126,0.5973,19.167,19.5203,20.5868,91.373,,33.8385,27.2127,0.0316,,,,-99.0,,-99.0,-99.0,26.9559,,26.9573,,0.6360,85.2995,,7.514,,7.9979E+01,,1.0000E-12,,5.7613,5.7612,1.0332,,6.317,30.115,,,,,,,,,,,,
CalCOFI,2007SR,049,51,2007_049u,22-Jul-2020 14:24:51,22-Jul-2020 06:24:51,32.57818,-122.81179,083.3 090.0,083.3,090.0,505.000,509.194,,5.8103,,5.8107,,5.8105,34.2068,,34.2070,34.2086,,34.2102,34.2086,0.4411,,0.4432,0.4824,2.0934,,1.0564,0.6939,0.5882,19.183,19.5370,20.6035,91.036,,33.0413,26.8224,0.0323,,,,-99.0,,-99.0,-99.0,26.9550,,26.9563,,0.6364,85.2916,,7.513,,7.9979E+01,,1.0000E-12,,5.7667,5.7671,1.0332,,6.323,30.008,,,,,,,,,,,,
CalCOFI,2007SR,049,51,2007_049u,22-Jul-2020 14:24:52,22-Jul-2020 06:24:52,32.57818,-122.81180,083.3 090.0,083.3,090.0,504.000,508.184,,5.8200,,5.8221,,5.8211,34.2075,,34.2077,34.2090,,34.2106,34.2092,0.4441,,0.4463,0.4855,2.0984,,1.0683,0.7060,0.5958,19.311,19.6707,20.7368,91.255,,33.5594,27.1481,0.0325,,,,-99.0,,-99.0,-99.0,26.9543,,26.9553,,0.6364,85.2913,,7.514,,7.9979E+01,,1.0000E-12,,5.7765,5.7786,1.0332,,6.367,30.088,,,,,,,,,,,,
CalCOFI,2007SR,049,51,2007_049u,22-Jul-2020 14:24:54,22-Jul-2020 06:24:54,32.57818,-122.81178,083.3 090.0,083.3,090.0,503.000,507.175,,5.8334,,5.8297,,5.8316,34.2074,,34.2076,34.2087,,34.2103,34.2090,0.4509,,0.4534,0.4925,2.0963,,1.0633,0.7009,0.5967,19.611,19.9838,21.0493,91.163,,33.3418,27.1956,0.0319,,,,-99.0,,-99.0,-99.0,26.9526,,26.9541,,0.6364,85.2913,,7.513,,7.9979E+01,,1.0000E-12,,5.7900,5.7863,1.0332,,6.468,30.063,,,,,,,,,,,,
CalCOFI,2007SR,049,51,2007_049u,22-Jul-2020 14:24:55,22-Jul-2020 06:24:55,32.57818,-122.81178,083.3 090.0,083.3,090.0,502.000,506.165,,5.8476,,5.8403,,5.8440,34.2061,,34.2063,34.2083,,34.2099,34.2081,0.4591,,0.4620,0.5011,2.0917,,1.0523,0.6898,0.5955,19.965,20.3534,21.4179,90.965,,32.8734,27.1457,0.0320,,,,-99.0,,-99.0,-99.0,26.9498,,26.9524,,0.6364,85.2913,,7.513,,7.9979E+01,,1.0000E-12,,5.8042,5.7969,1.0332,,6.587,30.006,,,,,,,,,,,,
CalCOFI,2007SR,049,51,2007_049u,22-Jul-2020 14:24:56,22-Jul-2020 06:24:56,32.57818,-122.81178,083.3 090.0,083.3,090.0,501.000,505.155,,5.8557,,5.8546,,5.8552,34.2053,,34.2055,34.2069,,34.2085,34.2070,0.4613,,0.4643,0.5034,2.0884,,1.0444,0.6818,0.5926,20.060,20.4525,21.5169,90.820,,32.5303,27.0236,0.0329,,,,-99.0,,-99.0,-99.0,26.9482,,26.9496,,0.6364,85.2913,,7.513,,7.9979E+01,,1.0000E-12,,5.8123,5.8112,1.0332,,6.619,29.967,,,,,,,,,,,,
CalCOFI,2007SR,049,51,2007_049u,22-Jul-2020 14:24:57,22-Jul-2020 06:24:57,32.57818,-122.81178,083.3 090.0,083.3,090.0,500.000,504.146,,5.8630,,5.8627,,5.8629,34.2041,,34.2043,34.2056,,34.2072,34.2058,0.4614,,0.4644,0.5035,2.0882,,1.0440,0.6813,0.5924,20.064,20.4567,21.5211,90.811,,32.5090,27.0151,0.0329,,,,-99.0,,-99.0,-99.0,26.9463,,26.9476,,0.6364,85.2913,,7.513,,7.9979E+01,,1.0000E-12,,5.8197,5.8194,1.0332,,6.622,29.970,,,,,,,,,,,,
CalCOFI,2007SR,049,51,2007_049u,22-Jul-2020 14:24:57,22-Jul-2020 06:24:57,32.57818,-122.81178,083.3 090.0,083.3,090.0,499.000,503.136,,5.8688,,5.8688,,5.8688,34.2023,,34.2025,34.2038,,34.2054,34.2040,0.4689,,0.4723,0.5112,2.0882,,1.0440,0.6813,0.5963,20.393,20.8002,21.8637,90.812,,32.5114,27.1876,0.0324,,,,-99.0,,-99.0,-99.0,26.9442,,26.9453,,0.6364,85.2913,,7.513,,7.9979E+01,,1.0000E-12,,5.8256,5.8256,1.0332,,6.731,29.974,,,,,,,,,,,,
CalCOFI,2007SR,049,51,2007_049u,22-Jul-2020 14:24:58,22-Jul-2020 06:24:58,32.57818,-122.81178,083.3 090.0,083.3,090.0,498.000,502.127,,5.8747,,5.8754,,5.8751,34.2017,,34.2019,34.2031,,34.2047,34.2033,0.4700,,0.4734,0.5124,2.0878,,1.0430,0.6803,0.5964,20.438,20.8471,21.9106,90.795,,32.4712,27.1909,0.0324,,,,-99.0,,-99.0,-99.0,26.9429,,26.9439,,0.6364,85.2913,,7.513,,7.9979E+01,,1.0000E-12,,5.8315,5.8322,1.0332,,6.747,29.973,,,,,,,,,,,,
CalCOFI,2007SR,049,51,2007_049u,22-Jul-2020 14:24:59,22-Jul-2020 06:24:59,32.57818,-122.81178,083.3 090.0,083.3,090.0,497.000,501.117,,5.8852,,5.8848,,5.8850,34.2007,,34.2009,34.2023,,34.2039,34.2024,0.4731,,0.4766,0.5156,2.0812,,1.0272,0.6643,0.5900,20.575,20.9901,22.0532,90.507,,31.7899,26.9216,0.0327,,,,-99.0,,-99.0,-99.0,26.9409,,26.9421,,0.6364,85.2913,,7.514,,7.9979E+01,,1.0000E-12,,5.8421,5.8417,1.0332,,6.794,29.884,,,,,,,,,,,,
CalCOFI,2007SR,049,51,2007_049u,22-Jul-2020 14:25:00,22-Jul-2020 06:25:00,32.57818,-122.81178,083.3 090.0,083.3,090.0,496.000,500.108,,5.8936,,5.8932,,5.8934,34.1996,,34.1998,34.2010,,34.2026,34.2012,0.4744,,0.4780,0.5170,2.0813,,1.0275,0.6645,0.5908,20.632,21.0496,22.1126,90.513,,31.8041,26.9584,0.0330,,,,-99.0,,-99.0,-99.0,26.9389,,26.9401,,0.6364,85.2913,,7.514,,7.9979E+01,,1.0000E-12,,5.8505,5.8502,1.0332,,6.814,29.892,,,,,,,,,,,,
CalCOFI,2007SR,049,51,2007_049u,22-Jul-2020 14:25:01,22-Jul-2020 06:25:01,32.57818,-122.81178,083.3 090.0,083.3,090.0,495.000,499.098,,5.8971,,5.8974,,5.8973,34.1987,,34.1989,34.2001,,34.2017,34.2003,0.4762,,0.4799,0.5188,2.0814,,1.0277,0.6648,0.5918,20.711,21.1321,22.1949,90.517,,31.8136,27.0043,0.0323,,,,-99.0,,-99.0,-99.0,26.9378,,26.9388,,0.6364,85.2913,,7.514,,7.9979E+01,,1.0000E-12,,5.8541,5.8545,1.0332,,6.840,29.896,,,,,,,,,,,,
CalCOFI,2007SR,049,51,2007_049u,22-Jul-2020 14:25:02,22-Jul-2020 06:25:02,32.57818,-122.81178,083.3 090.0,083.3,090.0,494.000,498.089,,5.8992,,5.8991,,5.8992,34.1980,,34.1982,34.1994,,34.2010,34.1996,0.4761,,0.4798,0.5187,2.0808,,1.0263,0.6633,0.5910,20.705,21.1258,22.1886,90.490,,31.7497,26.9692,0.0327,,,,-99.0,,-99.0,-99.0,26.9370,,26.9381,,0.6364,85.2913,,7.514,,7.9979E+01,,1.0000E-12,,5.8563,5.8562,1.0332,,6.839,29.888,,,,,,,,,,,,
CalCOFI,2007SR,049,51,2007_049u,22-Jul-2020 14:25:04,22-Jul-2020 06:25:04,32.57818,-122.81178,083.3 090.0,083.3,090.0,493.000,497.079,,5.8995,,5.8994,,5.8995,34.1977,,34.1979,34.1994,,34.2010,34.1995,0.4779,,0.4817,0.5206,2.0809,,1.0265,0.6636,0.5921,20.783,21.2073,22.2699,90.495,,31.7615,27.0157,0.0322,,,,-99.0,,-99.0,-99.0,26.9367,,26.9380,,0.6364,85.2913,,7.514,,8.0230E+01,,1.0000E-12,,5.8567,5.8566,1.0332,,6.864,29.890,,,,,,,,,,,,
CalCOFI,2007SR,049,51,2007_049u,22-Jul-2020 14:25:05,22-Jul-2020 06:25:05,32.57818,-122.81178,083.3 090.0,083.3,090.0,492.000,496.070,,5.8989,,5.8994,,5.8992,34.1977,,34.1979,34.1990,,34.2006,34.1993,0.4820,,0.4859,0.5249,2.0809,,1.0265,0.6636,0.5943,20.963,21.3952,22.4573,90.494,,31.7591,27.1082,0.0327,,,,-99.0,,-99.0,-99.0,26.9367,,26.9377,,0.6364,85.2913,,7.514,,8.1002E+01,,1.0000E-12,,5.8563,5.8567,1.0332,,6.924,29.889,,,,,,,,,,,,
CalCOFI,2007SR,049,51,2007_049u,22-Jul-2020 14:25:06,22-Jul-2020 06:25:06,32.57818,-122.81178,083.3 090.0,083.3,090.0,491.000,495.060,,5.9014,,5.9013,,5.9014,34.1976,,34.1978,34.1990,,34.2006,34.1992,0.4923,,0.4967,0.5356,2.0805,,1.0256,0.6626,0.5991,21.408,21.8597,22.9208,90.479,,31.7237,27.3223,0.0317,,,,-99.0,,-99.0,-99.0,26.9363,,26.9374,,0.6364,85.2913,,7.514,,7.9981E+01,,1.0000E-12,,5.8588,5.8587,1.0332,,7.071,29.886,,,,,,,,,,,,
CalCOFI,2007SR,049,51,2007_049u,22-Jul-2020 14:25:07,22-Jul-2020 06:25:07,32.57818,-122.81178,083.3 090.0,083.3,090.0,490.000,494.051,,5.9023,,5.9023,,5.9023,34.1957,,34.1959,34.1969,,34.1985,34.1972,0.4953,,0.4998,0.5387,2.0802,,1.0249,0.6619,0.6003,21.538,21.9954,23.0562,90.466,,31.6929,27.3746,0.0332,,,,-99.0,,-99.0,-99.0,26.9346,,26.9357,,0.6364,85.2913,,7.514,,7.9979E+01,,1.0000E-12,,5.8598,5.8598,1.0332,,7.114,29.882,,,,,,,,,,,,
CalCOFI,2007SR,049,51,2007_049u,22-Jul-2020 14:25:07,22-Jul-2020 06:25:07,32.57818,-122.81178,083.3 090.0,083.3,090.0,489.000,493.042,,5.9051,,5.9052,,5.9052,34.1945,,34.1947,34.1960,,34.1976,34.1962,0.4995,,0.5042,0.5430,2.0798,,1.0239,0.6609,0.6020,21.720,22.1854,23.2457,90.448,,31.6503,27.4480,0.0325,,,,-99.0,,-99.0,-99.0,26.9334,,26.9345,,0.6364,85.2913,,7.514,,7.9979E+01,,1.0000E-12,,5.8627,5.8627,1.0332,,7.175,29.877,,,,,,,,,,,,
CalCOFI,2007SR,049,51,2007_049u,22-Jul-2020 14:25:08,22-Jul-2020 06:25:08,32.57818,-122.81178,083.3 090.0,083.3,090.0,488.000,492.032,,5.9132,,5.9135,,5.9134,34.1929,,34.1931,34.1944,,34.1960,34.1946,0.4972,,0.5018,0.5406,2.0791,,1.0222,0.6592,0.5999,21.621,22.0821,23.1426,90.418,,31.5794,27.3610,0.0324,,,,-99.0,,-99.0,-99.0,26.9311,,26.9322,,0.6364,85.2913,,7.514,,8.0911E+01,,1.0000E-12,,5.8708,5.8711,1.0332,,7.143,29.873,,,,,,,,,,,,
CalCOFI,2007SR,049,51,2007_049u,22-Jul-2020 14:25:09,22-Jul-2020 06:25:09,32.57818,-122.81178,083.3 090.0,083.3,090.0,487.000,491.023,,5.9209,,5.9218,,5.9214,34.1924,,34.1926,34.1937,,34.1953,34.1940,0.4984,,0.5031,0.5419,2.0784,,1.0206,0.6575,0.5997,21.674,22.1374,23.1978,90.387,,31.5060,27.3519,0.0332,,,,-99.0,,-99.0,-99.0,26.9297,,26.9306,,0.6364,85.2913,,7.514,,8.1873E+01,,1.0000E-12,,5.8786,5.8795,1.0332,,7.162,29.868,,,,,,,,,,,,
CalCOFI,2007SR,049,51,2007_049u,22-Jul-2020 14:25:10,22-Jul-2020 06:25:10,32.57820,-122.81178,083.3 090.0,083.3,090.0,486.000,490.013,,5.9261,,5.9264,,5.9263,34.1922,,34.1924,34.1935,,34.1951,34.1938,0.5016,,0.5064,0.5452,2.0779,,1.0194,0.6563,0.6008,21.814,22.2835,23.3436,90.364,,31.4516,27.3976,0.0313,,,,-99.0,,-99.0,-99.0,26.9289,,26.9299,,0.6364,85.2913,,7.514,,8.1884E+01,,1.0000E-12,,5.8838,5.8841,1.0332,,7.209,29.864,,,,,,,,,,,,
CalCOFI,2007SR,049,51,2007_049u,22-Jul-2020 14:25:11,22-Jul-2020 06:25:11,32.57820,-122.81178,083.3 090.0,083.3,090.0,485.000,489.004,,5.9296,,5.9296,,5.9296,34.1924,,34.1926,34.1935,,34.1951,34.1939,0.5035,,0.5084,0.5472,2.0774,,1.0182,0.6551,0.6012,21.897,22.3702,23.4301,90.344,,31.4043,27.4172,0.0332,,,,-99.0,,-99.0,-99.0,26.9286,,26.9295,,0.6365,85.2894,,7.514,,8.1884E+01,,1.0000E-12,,5.8874,5.8874,1.0332,,7.237,29.860,,,,,,,,,,,,
CalCOFI,2007SR,049,51,2007_049u,22-Jul-2020 14:25:12,22-Jul-2020 06:25:12,32.57820,-122.81178,083.3 090.0,083.3,090.0,484.000,487.994,,5.9363,,5.9362,,5.9363,34.1921,,34.1923,34.1937,,34.1953,34.1938,0.5096,,0.5148,0.5535,2.0768,,1.0167,0.6536,0.6036,22.162,22.6468,23.7061,90.317,,31.3404,27.5233,0.0322,,,,-99.0,,-99.0,-99.0,26.9275,,26.9288,,0.6364,85.2913,,7.514,,8.1884E+01,,1.0000E-12,,5.8942,5.8941,1.0332,,7.326,29.855,,,,,,,,,,,,
CalCOFI,2007SR,049,51,2007_049u,22-Jul-2020 14:25:14,22-Jul-2020 06:25:14,32.57818,-122.81178,083.3 090.0,083.3,090.0,483.000,486.985,,5.9582,,5.9599,,5.9591,34.1919,,34.1921,34.1936,,34.1952,34.1937,0.5123,,0.5176,0.5563,2.0752,,1.0129,0.6497,0.6030,22.280,22.7700,23.8290,90.248,,31.1772,27.5031,0.0328,,,,-99.0,,-99.0,-99.0,26.9246,,26.9258,,0.6364,85.2913,,7.514,,8.1884E+01,,1.0000E-12,,5.9161,5.9178,1.0332,,7.368,29.849,,,,,,,,,,,,
CalCOFI,2007SR,049,51,2007_049u,22-Jul-2020 14:25:15,22-Jul-2020 06:25:15,32.57819,-122.81178,083.3 090.0,083.3,090.0,482.000,485.975,,5.9647,,5.9667,,5.9657,34.1903,,34.1905,34.1912,,34.1928,34.1917,0.5203,,0.5260,0.5646,2.0746,,1.0115,0.6483,0.6065,22.629,23.1343,24.1925,90.222,,31.1157,27.6541,0.0329,,,,-99.0,,-99.0,-99.0,26.9225,,26.9230,,0.6364,85.2913,,7.514,,8.1884E+01,,1.0000E-12,,5.9227,5.9246,1.0332,,7.485,29.844,,,,,,,,,,,,
CalCOFI,2007SR,049,51,2007_049u,22-Jul-2020 14:25:16,22-Jul-2020 06:25:16,32.57820,-122.81178,083.3 090.0,083.3,090.0,481.000,484.966,,5.9706,,5.9712,,5.9709,34.1895,,34.1897,34.1907,,34.1923,34.1910,0.5261,,0.5320,0.5707,2.0711,,1.0031,0.6398,0.6053,22.879,23.3953,24.4528,90.070,,30.7561,27.6045,0.0328,,,,-99.0,,-99.0,-99.0,26.9211,,26.9220,,0.6364,85.2913,,7.514,,8.1884E+01,,1.0000E-12,,5.9286,5.9292,1.0332,,7.568,29.797,,,,,,,,,,,,
CalCOFI,2007SR,049,51,2007_049u,22-Jul-2020 14:25:17,22-Jul-2020 06:25:17,32.57820,-122.81178,083.3 090.0,083.3,090.0,480.000,483.956,,5.9796,,5.9811,,5.9804,34.1891,,34.1893,34.1905,,34.1921,34.1907,0.5276,,0.5336,0.5722,2.0711,,1.0031,0.6398,0.6060,22.945,23.4642,24.5216,90.072,,30.7608,27.6412,0.0325,,,,-99.0,,-99.0,-99.0,26.9197,,26.9206,,0.6364,85.2913,,7.514,,8.1884E+01,,1.0000E-12,,5.9377,5.9392,1.0332,,7.592,29.805,,,,,,,,,,,,
CalCOFI,2007SR,049,51,2007_049u,22-Jul-2020 14:25:18,22-Jul-2020 06:25:18,32.57820,-122.81178,083.3 090.0,083.3,090.0,479.000,482.947,,5.9916,,5.9918,,5.9917,34.1878,,34.1880,34.1891,,34.1907,34.1894,0.5320,,0.5382,0.5768,2.0723,,1.0060,0.6427,0.6098,23.137,23.6646,24.7215,90.123,,30.8815,27.8015,0.0325,,,,-99.0,,-99.0,-99.0,26.9172,,26.9182,,0.6364,85.2913,,7.515,,8.1884E+01,,1.0000E-12,,5.9497,5.9500,1.0332,,7.658,29.829,,,,,,,,,,,,
CalCOFI,2007SR,049,51,2007_049u,22-Jul-2020 14:25:19,22-Jul-2020 06:25:19,32.57820,-122.81178,083.3 090.0,083.3,090.0,478.000,481.938,,5.9972,,5.9979,,5.9976,34.1863,,34.1865,34.1875,,34.1891,34.1878,0.5371,,0.5435,0.5821,2.0707,,1.0022,0.6388,0.6105,23.358,23.8953,24.9517,90.055,,30.7206,27.8362,0.0322,,,,-99.0,,-99.0,-99.0,26.9153,,26.9161,,0.6364,85.2913,,7.516,,8.1884E+01,,1.0000E-12,,5.9554,5.9561,1.0332,,7.732,29.810,,,,,,,,,,,,
CalCOFI,2007SR,049,51,2007_049u,22-Jul-2020 14:25:19,22-Jul-2020 06:25:19,32.57820,-122.81178,083.3 090.0,083.3,090.0,477.000,480.928,,6.0036,,6.0052,,6.0044,34.1843,,34.1845,34.1853,,34.1869,34.1857,0.5424,,0.5491,0.5876,2.0723,,1.0060,0.6427,0.6152,23.590,24.1375,25.1933,90.125,,30.8862,28.0398,0.0330,,,,-99.0,,-99.0,-99.0,26.9129,,26.9135,,0.6367,85.2842,,7.516,,8.1884E+01,,1.0000E-12,,5.9619,5.9634,1.0332,,7.810,29.838,,,,,,,,,,,,
CalCOFI,2007SR,049,51,2007_049u,22-Jul-2020 14:25:21,22-Jul-2020 06:25:21,32.57820,-122.81178,083.3 090.0,083.3,090.0,476.000,479.919,,6.0063,,6.0065,,6.0064,34.1824,,34.1826,34.1835,,34.1851,34.1839,0.5426,,0.5493,0.5878,2.0683,,0.9965,0.6330,0.6104,23.597,24.1448,25.2006,89.948,,30.4675,27.8341,0.0326,,,,-99.0,,-99.0,-99.0,26.9111,,26.9119,,0.6364,85.2913,,7.516,,8.1884E+01,,1.0000E-12,,5.9646,5.9649,1.0332,,7.812,29.779,,,,,,,,,,,,
CalCOFI,2007SR,049,51,2007_049u,22-Jul-2020 14:25:22,22-Jul-2020 06:25:22,32.57820,-122.81178,083.3 090.0,083.3,090.0,475.000,478.910,,6.0075,,6.0076,,6.0076,34.1802,,34.1804,34.1816,,34.1832,34.1818,0.5452,,0.5520,0.5905,2.0724,,1.0062,0.6430,0.6168,23.711,24.2638,25.3193,90.128,,30.8933,28.1063,0.0333,,,,-99.0,,-99.0,-99.0,26.9091,,26.9102,,0.6364,85.2913,,7.518,,8.1884E+01,,1.0000E-12,,5.9660,5.9660,1.0332,,7.850,29.840,,,,,,,,,,,,
CalCOFI,2007SR,049,51,2007_049u,22-Jul-2020 14:25:23,22-Jul-2020 06:25:23,32.57820,-122.81178,083.3 090.0,083.3,090.0,474.000,477.900,,6.0111,,6.0114,,6.0113,34.1797,,34.1799,34.1810,,34.1826,34.1813,0.5504,,0.5574,0.5959,2.0701,,1.0007,0.6374,0.6167,23.938,24.5008,25.5557,90.028,,30.6568,28.1063,0.0310,,,,-99.0,,-99.0,-99.0,26.9083,,26.9093,,0.6364,85.2913,,7.519,,8.1884E+01,,1.0000E-12,,5.9697,5.9699,1.0332,,7.926,29.809,,,,,,,,,,,,
CalCOFI,2007SR,049,51,2007_049u,22-Jul-2020 14:25:24,22-Jul-2020 06:25:24,32.57820,-122.81178,083.3 090.0,083.3,090.0,473.000,476.891,,6.0135,,6.0139,,6.0137,34.1794,,34.1796,34.1806,,34.1822,34.1809,0.5541,,0.5613,0.5998,2.0697,,0.9998,0.6364,0.6181,24.100,24.6699,25.7245,90.011,,30.6165,28.1705,0.0328,,,,-99.0,,-99.0,-99.0,26.9077,,26.9086,,0.6364,85.2913,,7.518,,8.1884E+01,,1.0000E-12,,5.9721,5.9725,1.0332,,7.980,29.805,,,,,,,,,,,,
CalCOFI,2007SR,049,51,2007_049u,22-Jul-2020 14:25:25,22-Jul-2020 06:25:25,32.57820,-122.81178,083.3 090.0,083.3,090.0,472.000,475.881,,6.0186,,6.0186,,6.0186,34.1788,,34.1790,34.1801,,34.1817,34.1804,0.5565,,0.5638,0.6023,2.0692,,0.9986,0.6352,0.6188,24.200,24.7743,25.8286,89.989,,30.5645,28.1966,0.0333,,,,-99.0,,-99.0,-99.0,26.9066,,26.9076,,0.6364,85.2913,,7.519,,8.1884E+01,,1.0000E-12,,5.9773,5.9773,1.0332,,8.014,29.801,,,,,,,,,,,,
CalCOFI,2007SR,049,51,2007_049u,22-Jul-2020 14:25:26,22-Jul-2020 06:25:26,32.57820,-122.81178,083.3 090.0,083.3,090.0,471.000,474.872,,6.0242,,6.0247,,6.0245,34.1780,,34.1782,34.1793,,34.1809,34.1796,0.5585,,0.5659,0.6043,2.0686,,0.9972,0.6337,0.6190,24.290,24.8682,25.9223,89.963,,30.5030,28.2127,0.0326,,,,-99.0,,-99.0,-99.0,26.9052,,26.9062,,0.6364,85.2913,,7.519,,8.1884E+01,,1.0000E-12,,5.9829,5.9835,1.0332,,8.045,29.796,,,,,,,,,,,,
CalCOFI,2007SR,049,51,2007_049u,22-Jul-2020 14:25:27,22-Jul-2020 06:25:27,32.57820,-122.81178,083.3 090.0,083.3,090.0,470.000,473.863,,6.0303,,6.0314,,6.0309,34.1773,,34.1775,34.1787,,34.1803,34.1789,0.5623,,0.5698,0.6083,2.0680,,0.9957,0.6323,0.6203,24.457,25.0426,26.0963,89.936,,30.4391,28.2677,0.0326,,,,-99.0,,-99.0,-99.0,26.9039,,26.9049,,0.6364,85.2913,,7.519,,8.1884E+01,,1.0000E-12,,5.9891,5.9902,1.0332,,8.101,29.792,,,,,,,,,,,,
CalCOFI,2007SR,049,51,2007_049u,22-Jul-2020 14:25:28,22-Jul-2020 06:25:28,32.57820,-122.81178,083.3 090.0,083.3,090.0,469.000,472.853,,6.0387,,6.0415,,6.0401,34.1772,,34.1774,34.1784,,34.1800,34.1787,0.5686,,0.5764,0.6148,2.0672,,0.9938,0.6303,0.6226,24.728,25.3255,26.3785,89.900,,30.3539,28.3662,0.0334,,,,-99.0,,-99.0,-99.0,26.9027,,26.9033,,0.6364,85.2904,,7.519,,8.1884E+01,,1.0000E-12,,5.9976,6.0004,1.0332,,8.193,29.787,,,,,,,,,,,,
CalCOFI,2007SR,049,51,2007_049u,22-Jul-2020 14:25:29,22-Jul-2020 06:25:29,32.57820,-122.81178,083.3 090.0,083.3,090.0,468.000,471.844,,6.0423,,6.0425,,6.0424,34.1758,,34.1760,34.1769,,34.1785,34.1773,0.5724,,0.5804,0.6188,2.0698,,1.0000,0.6366,0.6277,24.891,25.4956,26.5483,90.015,,30.6260,28.5872,0.0333,,,,-99.0,,-99.0,-99.0,26.9012,,26.9020,,0.6364,85.2913,,7.519,,8.1884E+01,,1.0000E-12,,6.0012,6.0015,1.0332,,8.247,29.825,,,,,,,,,,,,
CalCOFI,2007SR,049,51,2007_049u,22-Jul-2020 14:25:30,22-Jul-2020 06:25:30,32.57820,-122.81178,083.3 090.0,083.3,090.0,467.000,470.835,,6.0429,,6.0432,,6.0431,34.1750,,34.1752,34.1762,,34.1778,34.1765,0.5728,,0.5808,0.6192,2.0697,,0.9998,0.6364,0.6278,24.912,25.5175,26.5701,90.012,,30.6189,28.5945,0.0331,,,,-99.0,,-99.0,-99.0,26.9005,,26.9014,,0.6364,85.2913,,7.519,,8.1884E+01,,1.0000E-12,,6.0019,6.0022,1.0332,,8.254,29.825,,,,,,,,,,,,
CalCOFI,2007SR,049,51,2007_049u,22-Jul-2020 14:25:31,22-Jul-2020 06:25:31,32.57820,-122.81178,083.3 090.0,083.3,090.0,466.000,469.825,,6.0475,,6.0475,,6.0475,34.1740,,34.1742,34.1754,,34.1770,34.1756,0.5758,,0.5840,0.6223,2.0709,,1.0027,0.6393,0.6308,25.043,25.6543,26.7066,90.065,,30.7443,28.7255,0.0326,,,,-99.0,,-99.0,-99.0,26.8991,,26.9002,,0.6368,85.2832,,7.519,,8.1884E+01,,1.0000E-12,,6.0066,6.0066,1.0332,,8.298,29.845,,,,,,,,,,,,
CalCOFI,2007SR,049,51,2007_049u,22-Jul-2020 14:25:32,22-Jul-2020 06:25:32,32.57820,-122.81178,083.3 090.0,083.3,090.0,465.000,468.816,,6.0518,,6.0526,,6.0522,34.1733,,34.1735,34.1744,,34.1760,34.1748,0.5847,,0.5933,0.6316,2.0750,,1.0124,0.6493,0.6405,25.427,26.0551,27.1065,90.242,,31.1630,29.1348,0.0319,,,,-99.0,,-99.0,-99.0,26.8980,,26.8988,,0.6364,85.2904,,7.519,,8.1884E+01,,1.0000E-12,,6.0110,6.0118,1.0332,,8.426,29.907,,,,,,,,,,,,
CalCOFI,2007SR,049,51,2007_049u,22-Jul-2020 14:25:33,22-Jul-2020 06:25:33,32.57820,-122.81178,083.3 090.0,083.3,090.0,464.000,467.807,,6.0563,,6.0581,,6.0572,34.1721,,34.1723,34.1730,,34.1746,34.1735,0.5868,,0.5954,0.6337,2.0699,,1.0003,0.6369,0.6353,25.518,26.1501,27.2013,90.019,,30.6355,28.9184,0.0329,,,,-99.0,,-99.0,-99.0,26.8965,,26.8970,,0.6364,85.2904,,7.519,,8.1884E+01,,1.0000E-12,,6.0156,6.0174,1.0332,,8.457,29.837,,,,,,,,,,,,